Location: Campillo
(40.8621°N, 4.2488°W)
Time: 15:12:14
(UTC+00:00)

Cosmos 1777 Rocket - Pass Details

Date: 28 September 2021
Orbit: 759 x 775 km, 74.0° (Epoch: 23 October)

Event Time Altitude Azimuth Distance (km) Brightness Sun altitude
Rises 05:07:23 0° 339° (NNW) 3,226 7.1 -12.7°
Reaches altitude 10° 05:09:45 10° 338° (NNW) 2,297 6.3 -12.3°
Maximum altitude 05:14:57 79° 253° (WSW) 777 3.9 -11.3°
Drops below altitude 10° 05:20:08 10° 167° (SSE) 2,284 6.6 -10.4°
Sets 05:22:29 0° 166° (SSE) 3,207 7.3 -9.9°
